Time,TemperatureF,DewpointF,PressureIn,WindDirection,WindDirectionDegrees,WindSpeedMPH,WindSpeedGustMPH,Humidity,HourlyPrecipIn,Conditions,Clouds,dailyrainin,SoftwareType,DateUTC
2013-09-13 00:01:00,61.4,53.0,29.74,NW,307,0.0,0.0,74,0.00,,---,0.00,VWS V13.00,2013-09-13 07:01:00,
2013-09-13 00:06:00,61.3,53.3,29.74,NW,307,0.0,0.0,75,0.00,,---,0.00,VWS V13.00,2013-09-13 07:06:00,
2013-09-13 00:11:00,61.1,53.1,29.74,NW,307,0.0,2.0,75,0.00,,---,0.00,VWS V13.00,2013-09-13 07:11:00,
2013-09-13 00:16:00,60.9,52.9,29.74,NW,307,0.0,2.0,75,0.00,,---,0.00,VWS V13.00,2013-09-13 07:16:00,
2013-09-13 00:21:00,60.7,52.7,29.74,NW,307,0.0,2.0,75,0.00,,---,0.00,VWS V13.00,2013-09-13 07:21:00,
2013-09-13 00:26:00,60.5,52.9,29.75,NW,307,0.0,2.0,76,0.00,,---,0.00,VWS V13.00,2013-09-13 07:26:00,
2013-09-13 00:31:00,60.4,53.2,29.75,NW,307,0.0,1.0,77,0.00,,---,0.00,VWS V13.00,2013-09-13 07:31:00,
2013-09-13 00:36:00,60.2,53.0,29.75,NW,307,1.0,2.0,77,0.00,,---,0.00,VWS V13.00,2013-09-13 07:36:00,
2013-09-13 00:41:00,60.1,52.9,29.75,NW,307,0.0,2.0,77,0.00,,---,0.00,VWS V13.00,2013-09-13 07:41:00,
2013-09-13 00:46:00,60.0,53.1,29.75,NW,307,0.0,2.0,78,0.00,,---,0.00,VWS V13.00,2013-09-13 07:46:00,
2013-09-13 00:50:00,59.8,52.6,29.75,NW,307,2.0,2.0,77,0.00,,---,0.00,VWS V13.00,2013-09-13 07:50:00,
2013-09-13 00:55:00,59.6,52.4,29.75,NW,307,1.0,2.0,77,0.00,,---,0.00,VWS V13.00,2013-09-13 07:55:00,
2013-09-13 01:00:00,59.4,52.5,29.74,NW,307,2.0,3.0,78,0.00,,---,0.00,VWS V13.00,2013-09-13 08:00:00,
2013-09-13 01:05:00,59.0,52.5,29.74,NW,307,1.0,3.0,79,0.00,,---,0.00,VWS V13.00,2013-09-13 08:05:00,
2013-09-13 01:10:00,59.0,52.5,29.74,NW,307,2.0,3.0,79,0.00,,---,0.00,VWS V13.00,2013-09-13 08:10:00,
2013-09-13 01:15:00,59.0,52.8,29.74,NW,307,0.0,3.0,80,0.00,,---,0.00,VWS V13.00,2013-09-13 08:15:00,
2013-09-13 01:20:00,58.7,52.6,29.74,NW,307,0.0,3.0,80,0.00,,---,0.00,VWS V13.00,2013-09-13 08:20:00,
2013-09-13 01:25:00,58.5,52.0,29.74,NW,307,0.0,3.0,79,0.00,,---,0.00,VWS V13.00,2013-09-13 08:25:00,
2013-09-13 01:30:00,58.4,51.9,29.75,NW,307,0.0,0.0,79,0.00,,---,0.00,VWS V13.00,2013-09-13 08:30:00,
2013-09-13 01:35:00,58.2,52.1,29.74,NW,307,0.0,0.0,80,0.00,,---,0.00,VWS V13.00,2013-09-13 08:35:00,
2013-09-13 01:40:00,58.1,52.0,29.75,NW,307,0.0,1.0,80,0.00,,---,0.00,VWS V13.00,2013-09-13 08:40:00,
2013-09-13 01:45:00,58.0,52.2,29.74,NW,307,0.0,2.0,81,0.00,,---,0.00,VWS V13.00,2013-09-13 08:45:00,
2013-09-13 01:50:00,57.9,52.1,29.74,NW,307,0.0,2.0,81,0.00,,---,0.00,VWS V13.00,2013-09-13 08:50:00,
2013-09-13 01:55:00,57.8,51.7,29.74,NW,307,0.0,2.0,80,0.00,,---,0.00,VWS V13.00,2013-09-13 08:55:00,
2013-09-13 02:00:00,57.7,51.6,29.74,NW,307,1.0,2.0,80,0.00,,---,0.00,VWS V13.00,2013-09-13 09:00:00,
2013-09-13 02:05:00,57.6,51.5,29.74,NW,307,0.0,2.0,80,0.00,,---,0.00,VWS V13.00,2013-09-13 09:05:00,
2013-09-13 02:10:00,57.5,51.4,29.75,NW,307,0.0,2.0,80,0.00,,---,0.00,VWS V13.00,2013-09-13 09:10:00,
2013-09-13 02:15:00,57.4,51.3,29.75,NW,307,0.0,2.0,80,0.00,,---,0.00,VWS V13.00,2013-09-13 09:15:00,
2013-09-13 02:20:00,57.2,51.1,29.75,NW,307,0.0,2.0,80,0.00,,---,0.00,VWS V13.00,2013-09-13 09:20:00,
2013-09-13 02:25:00,57.1,51.0,29.75,NW,307,0.0,2.0,80,0.00,,---,0.00,VWS V13.00,2013-09-13 09:25:00,
2013-09-13 02:30:00,57.0,51.2,29.75,NW,307,0.0,0.0,81,0.00,,---,0.00,VWS V13.00,2013-09-13 09:30:00,
2013-09-13 02:35:00,57.0,51.2,29.75,NW,307,0.0,0.0,81,0.00,,---,0.00,VWS V13.00,2013-09-13 09:35:00,
2013-09-13 02:40:00,56.9,51.1,29.75,NW,307,0.0,1.0,81,0.00,,---,0.00,VWS V13.00,2013-09-13 09:40:00,
2013-09-13 02:45:00,56.8,51.0,29.75,NW,307,0.0,1.0,81,0.00,,---,0.00,VWS V13.00,2013-09-13 09:45:00,
2013-09-13 02:50:00,56.7,50.9,29.74,NW,307,0.0,1.0,81,0.00,,---,0.00,VWS V13.00,2013-09-13 09:50:00,
2013-09-13 02:55:00,56.6,50.8,29.75,NW,307,0.0,2.0,81,0.00,,---,0.00,VWS V13.00,2013-09-13 09:55:00,
2013-09-13 03:00:00,56.4,50.7,29.75,NW,307,0.0,2.0,81,0.00,,---,0.00,VWS V13.00,2013-09-13 10:00:00,
2013-09-13 03:05:00,56.2,50.5,29.75,NW,307,0.0,2.0,81,0.00,,---,0.00,VWS V13.00,2013-09-13 10:05:00,
2013-09-13 03:10:00,56.1,50.7,29.75,NW,307,0.0,2.0,82,0.00,,---,0.00,VWS V13.00,2013-09-13 10:10:00,
2013-09-13 03:15:00,55.9,50.5,29.75,NW,307,0.0,2.0,82,0.00,,---,0.00,VWS V13.00,2013-09-13 10:15:00,
2013-09-13 03:20:00,55.8,50.4,29.75,NW,307,0.0,2.0,82,0.00,,---,0.00,VWS V13.00,2013-09-13 10:20:00,
2013-09-13 03:25:00,55.7,50.6,29.75,NW,307,0.0,2.0,83,0.00,,---,0.00,VWS V13.00,2013-09-13 10:25:00,
2013-09-13 03:30:00,55.5,50.4,29.75,NW,307,0.0,0.0,83,0.00,,---,0.00,VWS V13.00,2013-09-13 10:30:00,
2013-09-13 03:35:00,55.4,50.3,29.75,NW,307,0.0,0.0,83,0.00,,---,0.00,VWS V13.00,2013-09-13 10:35:00,
2013-09-13 03:40:00,55.3,50.6,29.75,NW,307,0.0,0.0,84,0.00,,---,0.00,VWS V13.00,2013-09-13 10:40:00,
2013-09-13 03:45:00,55.2,50.5,29.75,NW,307,2.0,2.0,84,0.00,,---,0.00,VWS V13.00,2013-09-13 10:45:00,
2013-09-13 03:50:00,55.0,50.3,29.75,NW,307,2.0,2.0,84,0.00,,---,0.00,VWS V13.00,2013-09-13 10:50:00,
2013-09-13 03:55:00,54.9,50.2,29.75,NW,307,0.0,2.0,84,0.00,,---,0.00,VWS V13.00,2013-09-13 10:55:00,
2013-09-13 04:00:00,54.8,50.1,29.76,NW,307,0.0,0.0,84,0.00,,---,0.00,VWS V13.00,2013-09-13 11:00:00,
2013-09-13 04:05:00,54.7,50.0,29.76,NW,307,1.0,2.0,84,0.00,,---,0.00,VWS V13.00,2013-09-13 11:05:00,
2013-09-13 04:10:00,54.6,49.9,29.76,NW,307,0.0,2.0,84,0.00,,---,0.00,VWS V13.00,2013-09-13 11:10:00,
2013-09-13 04:15:00,54.5,49.8,29.76,NW,307,0.0,2.0,84,0.00,,---,0.00,VWS V13.00,2013-09-13 11:15:00,
2013-09-13 04:20:00,54.4,49.7,29.76,NW,307,0.0,2.0,84,0.00,,---,0.00,VWS V13.00,2013-09-13 11:20:00,
2013-09-13 04:25:00,54.3,49.6,29.76,NW,307,0.0,2.0,84,0.00,,---,0.00,VWS V13.00,2013-09-13 11:25:00,
2013-09-13 04:30:00,54.2,49.5,29.76,NW,307,0.0,0.0,84,0.00,,---,0.00,VWS V13.00,2013-09-13 11:30:00,
2013-09-13 04:35:00,54.1,49.7,29.76,NW,307,0.0,0.0,85,0.00,,---,0.00,VWS V13.00,2013-09-13 11:35:00,
2013-09-13 04:40:00,54.0,49.6,29.76,NW,307,0.0,0.0,85,0.00,,---,0.00,VWS V13.00,2013-09-13 11:40:00,
2013-09-13 04:45:00,54.0,49.6,29.76,NW,307,0.0,0.0,85,0.00,,---,0.00,VWS V13.00,2013-09-13 11:45:00,
2013-09-13 04:50:00,53.9,49.8,29.76,NW,307,0.0,2.0,86,0.00,,---,0.00,VWS V13.00,2013-09-13 11:50:00,
2013-09-13 04:55:00,53.9,49.8,29.76,NW,307,0.0,2.0,86,0.00,,---,0.00,VWS V13.00,2013-09-13 11:55:00,
2013-09-13 05:00:00,53.8,49.7,29.75,NW,307,0.0,2.0,86,0.00,,---,0.00,VWS V13.00,2013-09-13 12:00:00,
2013-09-13 05:05:00,53.7,49.3,29.75,NW,307,1.0,3.0,85,0.00,,---,0.00,VWS V13.00,2013-09-13 12:05:00,
2013-09-13 05:10:00,53.5,49.1,29.75,NW,307,0.0,3.0,85,0.00,,---,0.00,VWS V13.00,2013-09-13 12:10:00,
2013-09-13 05:15:00,53.4,49.3,29.75,NW,307,1.0,3.0,86,0.00,,---,0.00,VWS V13.00,2013-09-13 12:15:00,
2013-09-13 05:20:00,53.3,49.2,29.75,NW,307,0.0,3.0,86,0.00,,---,0.00,VWS V13.00,2013-09-13 12:20:00,
2013-09-13 05:25:00,53.3,49.2,29.75,NW,307,0.0,3.0,86,0.00,,---,0.00,VWS V13.00,2013-09-13 12:25:00,
2013-09-13 05:30:00,53.2,49.1,29.75,NW,307,0.0,0.0,86,0.00,,---,0.00,VWS V13.00,2013-09-13 12:30:00,
2013-09-13 05:35:00,53.2,49.4,29.75,NW,307,0.0,1.0,87,0.00,,---,0.00,VWS V13.00,2013-09-13 12:35:00,
2013-09-13 05:40:00,53.2,49.4,29.76,NW,307,0.0,1.0,87,0.00,,---,0.00,VWS V13.00,2013-09-13 12:40:00,
2013-09-13 05:45:00,53.1,49.0,29.76,NW,307,0.0,1.0,86,0.00,,---,0.00,VWS V13.00,2013-09-13 12:45:00,
2013-09-13 05:50:00,53.0,48.9,29.75,NW,307,1.0,2.0,86,0.00,,---,0.00,VWS V13.00,2013-09-13 12:50:00,
2013-09-13 05:55:00,52.9,48.8,29.76,NW,307,1.0,2.0,86,0.00,,---,0.00,VWS V13.00,2013-09-13 12:55:00,
2013-09-13 06:00:00,52.8,48.7,29.77,NW,307,2.0,2.0,86,0.00,,---,0.00,VWS V13.00,2013-09-13 13:00:00,
2013-09-13 06:05:00,52.6,48.8,29.77,NW,307,0.0,2.0,87,0.00,,---,0.00,VWS V13.00,2013-09-13 13:05:00,
2013-09-13 06:10:00,52.5,48.8,29.76,NW,307,0.0,2.0,87,0.00,,---,0.00,VWS V13.00,2013-09-13 13:10:00,
2013-09-13 06:15:00,52.4,48.7,29.77,NW,307,0.0,2.0,87,0.00,,---,0.00,VWS V13.00,2013-09-13 13:15:00,
2013-09-13 06:20:00,52.4,48.7,29.77,NW,307,0.0,2.0,87,0.00,,---,0.00,VWS V13.00,2013-09-13 13:20:00,
2013-09-13 06:25:00,52.3,48.5,29.77,NW,307,0.0,2.0,87,0.00,,---,0.00,VWS V13.00,2013-09-13 13:25:00,
2013-09-13 06:30:00,52.3,48.5,29.78,NW,307,0.0,2.0,87,0.00,,---,0.00,VWS V13.00,2013-09-13 13:30:00,
2013-09-13 06:35:00,52.2,48.5,29.78,NW,307,1.0,2.0,87,0.00,,---,0.00,VWS V13.00,2013-09-13 13:35:00,
2013-09-13 06:40:00,52.2,48.8,29.78,NW,307,0.0,2.0,88,0.00,,---,0.00,VWS V13.00,2013-09-13 13:40:00,
2013-09-13 06:45:00,52.1,48.7,29.78,NW,307,0.0,2.0,88,0.00,,---,0.00,VWS V13.00,2013-09-13 13:45:00,
2013-09-13 06:50:00,52.1,48.7,29.78,NW,307,0.0,2.0,88,0.00,,---,0.00,VWS V13.00,2013-09-13 13:50:00,
2013-09-13 06:55:00,52.0,48.6,29.78,NW,307,0.0,2.0,88,0.00,,---,0.00,VWS V13.00,2013-09-13 13:55:00,
2013-09-13 07:00:00,52.1,48.7,29.80,NW,307,0.0,0.0,88,0.00,,---,0.00,VWS V13.00,2013-09-13 14:00:00,
2013-09-13 07:05:00,52.0,48.6,29.79,NW,307,1.0,2.0,88,0.00,,---,0.00,VWS V13.00,2013-09-13 14:05:00,
2013-09-13 07:10:00,52.1,48.7,29.80,NW,307,0.0,3.0,88,0.00,,---,0.00,VWS V13.00,2013-09-13 14:10:00,
2013-09-13 07:15:00,52.2,49.1,29.80,NW,307,0.0,3.0,89,0.00,,---,0.00,VWS V13.00,2013-09-13 14:15:00,
2013-09-13 07:20:00,52.3,49.2,29.79,NW,307,0.0,3.0,89,0.00,,---,0.00,VWS V13.00,2013-09-13 14:20:00,
2013-09-13 07:25:00,52.5,49.4,29.79,NW,307,0.0,3.0,89,0.00,,---,0.00,VWS V13.00,2013-09-13 14:25:00,
2013-09-13 07:30:00,52.7,49.8,29.79,NW,307,0.0,0.0,90,0.00,,---,0.00,VWS V13.00,2013-09-13 14:30:00,
2013-09-13 07:35:00,52.9,50.0,29.79,NW,307,0.0,1.0,90,0.00,,---,0.00,VWS V13.00,2013-09-13 14:35:00,
2013-09-13 07:40:00,53.2,50.3,29.79,NW,307,0.0,1.0,90,0.00,,---,0.00,VWS V13.00,2013-09-13 14:40:00,
2013-09-13 07:45:00,53.4,50.5,29.79,NW,307,0.0,1.0,90,0.00,,---,0.00,VWS V13.00,2013-09-13 14:45:00,
2013-09-13 07:50:00,53.7,50.8,29.79,NW,307,0.0,1.0,90,0.00,,---,0.00,VWS V13.00,2013-09-13 14:50:00,
2013-09-13 07:55:00,53.9,51.0,29.79,NW,307,0.0,1.0,90,0.00,,---,0.00,VWS V13.00,2013-09-13 14:55:00,
2013-09-13 08:00:00,54.2,51.6,29.80,NW,307,0.0,0.0,91,0.00,,---,0.00,VWS V13.00,2013-09-13 15:00:00,
2013-09-13 08:05:00,54.7,52.1,29.80,NW,307,0.0,0.0,91,0.00,,---,0.00,VWS V13.00,2013-09-13 15:05:00,
2013-09-13 08:10:00,55.1,52.5,29.80,NW,307,0.0,0.0,91,0.00,,---,0.00,VWS V13.00,2013-09-13 15:10:00,
2013-09-13 08:15:00,55.5,52.9,29.80,NW,307,0.0,0.0,91,0.00,,---,0.00,VWS V13.00,2013-09-13 15:15:00,
2013-09-13 08:20:00,55.8,53.2,29.80,NW,307,0.0,0.0,91,0.00,,---,0.00,VWS V13.00,2013-09-13 15:20:00,
2013-09-13 08:25:00,56.1,53.2,29.80,NW,307,0.0,0.0,90,0.00,,---,0.00,VWS V13.00,2013-09-13 15:25:00,
2013-09-13 08:30:00,56.4,53.5,29.80,NW,307,0.0,0.0,90,0.00,,---,0.00,VWS V13.00,2013-09-13 15:30:00,
2013-09-13 08:35:00,56.8,53.9,29.79,NW,307,0.0,1.0,90,0.00,,---,0.00,VWS V13.00,2013-09-13 15:35:00,
2013-09-13 08:40:00,57.2,54.0,29.79,NW,307,0.0,1.0,89,0.00,,---,0.00,VWS V13.00,2013-09-13 15:40:00,
2013-09-13 08:45:00,57.6,54.1,29.80,NW,307,0.0,1.0,88,0.00,,---,0.00,VWS V13.00,2013-09-13 15:45:00,
2013-09-13 08:50:00,58.1,53.9,29.80,NW,307,0.0,1.0,86,0.00,,---,0.00,VWS V13.00,2013-09-13 15:50:00,
2013-09-13 08:55:00,58.5,54.3,29.79,NW,307,0.0,1.0,86,0.00,,---,0.00,VWS V13.00,2013-09-13 15:55:00,
2013-09-13 09:00:00,59.0,54.8,29.80,NW,307,0.0,0.0,86,0.00,,---,0.00,VWS V13.00,2013-09-13 16:00:00,
2013-09-13 09:05:00,59.2,55.0,29.80,NW,307,0.0,1.0,86,0.00,,---,0.00,VWS V13.00,2013-09-13 16:05:00,
2013-09-13 09:10:00,59.7,55.2,29.80,NW,307,0.0,1.0,85,0.00,,---,0.00,VWS V13.00,2013-09-13 16:10:00,
2013-09-13 09:15:00,60.2,55.3,29.80,NW,307,0.0,1.0,84,0.00,,---,0.00,VWS V13.00,2013-09-13 16:15:00,
2013-09-13 09:20:00,60.7,55.2,29.80,NW,307,0.0,2.0,82,0.00,,---,0.00,VWS V13.00,2013-09-13 16:20:00,
2013-09-13 09:25:00,61.3,55.8,29.80,NW,307,0.0,2.0,82,0.00,,---,0.00,VWS V13.00,2013-09-13 16:25:00,
2013-09-13 09:30:00,61.9,55.7,29.79,NW,307,0.0,2.0,80,0.00,,---,0.00,VWS V13.00,2013-09-13 16:30:00,
2013-09-13 09:35:00,62.2,56.0,29.79,NW,307,0.0,2.0,80,0.00,,---,0.00,VWS V13.00,2013-09-13 16:35:00,
2013-09-13 09:40:00,62.8,55.8,29.79,NW,307,0.0,2.0,78,0.00,,---,0.00,VWS V13.00,2013-09-13 16:40:00,
2013-09-13 09:45:00,63.5,56.9,29.79,NW,307,0.0,2.0,79,0.00,,---,0.00,VWS V13.00,2013-09-13 16:45:00,
2013-09-13 09:50:00,64.4,57.8,29.79,NW,307,0.0,2.0,79,0.00,,---,0.00,VWS V13.00,2013-09-13 16:50:00,
2013-09-13 09:55:00,65.0,56.9,29.78,NW,307,0.0,2.0,75,0.00,,---,0.00,VWS V13.00,2013-09-13 16:55:00,
2013-09-13 10:00:00,65.3,56.8,29.79,NW,307,0.0,0.0,74,0.00,,---,0.00,VWS V13.00,2013-09-13 17:00:00,
2013-09-13 10:05:00,65.8,57.3,29.78,NW,307,0.0,1.0,74,0.00,,---,0.00,VWS V13.00,2013-09-13 17:05:00,
2013-09-13 10:10:00,66.3,58.2,29.78,NW,307,0.0,1.0,75,0.00,,---,0.00,VWS V13.00,2013-09-13 17:10:00,
2013-09-13 10:15:00,67.0,57.3,29.78,NW,307,0.0,1.0,71,0.00,,---,0.00,VWS V13.00,2013-09-13 17:15:00,
2013-09-13 10:20:00,67.7,57.2,29.78,NW,307,0.0,3.0,69,0.00,,---,0.00,VWS V13.00,2013-09-13 17:20:00,
2013-09-13 10:25:00,68.1,55.0,29.78,NW,307,0.0,3.0,63,0.00,,---,0.00,VWS V13.00,2013-09-13 17:25:00,
2013-09-13 10:30:00,68.3,55.2,29.78,NW,307,0.0,1.0,63,0.00,,---,0.00,VWS V13.00,2013-09-13 17:30:00,
2013-09-13 10:35:00,68.6,55.1,29.77,NW,307,0.0,1.0,62,0.00,,---,0.00,VWS V13.00,2013-09-13 17:35:00,
2013-09-13 10:40:00,69.0,57.2,29.77,NW,307,1.0,1.0,66,0.00,,---,0.00,VWS V13.00,2013-09-13 17:40:00,
2013-09-13 10:45:00,69.7,56.6,29.77,NW,307,0.0,1.0,63,0.00,,---,0.00,VWS V13.00,2013-09-13 17:45:00,
2013-09-13 10:50:00,70.3,56.2,29.77,NW,306,0.0,1.0,61,0.00,,---,0.00,VWS V13.00,2013-09-13 17:50:00,
2013-09-13 10:55:00,71.1,57.9,29.77,NW,306,0.0,1.0,63,0.00,,---,0.00,VWS V13.00,2013-09-13 17:55:00,
2013-09-13 11:00:00,71.9,56.8,29.77,West,275,0.0,3.0,59,0.00,,---,0.00,VWS V13.00,2013-09-13 18:00:00,
2013-09-13 11:05:00,72.7,58.0,29.76,South,172,2.0,5.0,60,0.00,,---,0.00,VWS V13.00,2013-09-13 18:05:00,
2013-09-13 11:10:00,73.5,57.8,29.76,South,172,0.0,5.0,58,0.00,,---,0.00,VWS V13.00,2013-09-13 18:10:00,
2013-09-13 11:15:00,74.2,57.0,29.76,South,172,1.0,5.0,55,0.00,,---,0.00,VWS V13.00,2013-09-13 18:15:00,
2013-09-13 11:20:00,74.8,58.1,29.75,South,172,0.0,5.0,56,0.00,,---,0.00,VWS V13.00,2013-09-13 18:20:00,
2013-09-13 11:25:00,75.1,57.3,29.75,South,172,1.0,5.0,54,0.00,,---,0.00,VWS V13.00,2013-09-13 18:25:00,
2013-09-13 11:30:00,75.4,56.6,29.75,NNW,346,0.0,4.0,52,0.00,,---,0.00,VWS V13.00,2013-09-13 18:30:00,
2013-09-13 11:35:00,75.7,59.4,29.75,North,355,1.0,4.0,57,0.00,,---,0.00,VWS V13.00,2013-09-13 18:35:00,
2013-09-13 11:40:00,76.4,58.5,29.75,North,355,0.0,4.0,54,0.00,,---,0.00,VWS V13.00,2013-09-13 18:40:00,
2013-09-13 11:45:00,77.1,59.2,29.74,North,355,0.0,4.0,54,0.00,,---,0.00,VWS V13.00,2013-09-13 18:45:00,
2013-09-13 11:50:00,77.7,60.3,29.74,North,355,0.0,4.0,55,0.00,,---,0.00,VWS V13.00,2013-09-13 18:50:00,
2013-09-13 11:55:00,78.4,60.4,29.74,North,355,0.0,4.0,54,0.00,,---,0.00,VWS V13.00,2013-09-13 18:55:00,
2013-09-13 12:00:00,78.7,57.4,29.74,SW,223,0.0,0.0,48,0.00,,---,0.00,VWS V13.00,2013-09-13 19:00:00,
2013-09-13 12:05:00,79.1,59.4,29.74,SW,223,0.0,1.0,51,0.00,,---,0.00,VWS V13.00,2013-09-13 19:05:00,
2013-09-13 12:10:00,79.8,57.8,29.73,SE,136,0.0,3.0,47,0.00,,---,0.00,VWS V13.00,2013-09-13 19:10:00,
2013-09-13 12:15:00,80.4,58.9,29.73,SE,136,1.0,3.0,48,0.00,,---,0.00,VWS V13.00,2013-09-13 19:15:00,
2013-09-13 12:20:00,80.9,58.8,29.73,SE,136,1.0,3.0,47,0.00,,---,0.00,VWS V13.00,2013-09-13 19:20:00,
2013-09-13 12:25:00,81.4,58.0,29.73,SE,146,0.0,4.0,45,0.00,,---,0.00,VWS V13.00,2013-09-13 19:25:00,
2013-09-13 12:30:00,81.7,58.3,29.72,SE,141,0.0,3.0,45,0.00,,---,0.00,VWS V13.00,2013-09-13 19:30:00,
2013-09-13 12:35:00,82.1,60.5,29.72,South,185,2.0,5.0,48,0.00,,---,0.00,VWS V13.00,2013-09-13 19:35:00,
2013-09-13 12:40:00,82.7,59.8,29.71,South,181,2.0,5.0,46,0.00,,---,0.00,VWS V13.00,2013-09-13 19:40:00,
2013-09-13 12:45:00,83.2,59.0,29.71,South,180,0.0,5.0,44,0.00,,---,0.00,VWS V13.00,2013-09-13 19:45:00,
2013-09-13 12:50:00,83.5,57.3,29.71,South,180,0.0,5.0,41,0.00,,---,0.00,VWS V13.00,2013-09-13 19:50:00,
2013-09-13 12:55:00,83.8,60.2,29.71,South,180,0.0,5.0,45,0.00,,---,0.00,VWS V13.00,2013-09-13 19:55:00,
2013-09-13 13:00:00,84.3,59.4,29.71,South,180,0.0,1.0,43,0.00,,---,0.00,VWS V13.00,2013-09-13 20:00:00,
2013-09-13 13:05:00,84.9,59.3,29.71,South,180,0.0,3.0,42,0.00,,---,0.00,VWS V13.00,2013-09-13 20:05:00,
2013-09-13 13:10:00,85.4,59.0,29.71,SSE,157,0.0,3.0,41,0.00,,---,0.00,VWS V13.00,2013-09-13 20:10:00,
2013-09-13 13:15:00,86.0,62.8,29.70,SSE,157,0.0,3.0,46,0.00,,---,0.00,VWS V13.00,2013-09-13 20:15:00,
2013-09-13 13:20:00,86.4,59.2,29.70,East,92,0.0,3.0,40,0.00,,---,0.00,VWS V13.00,2013-09-13 20:20:00,
2013-09-13 13:25:00,86.9,57.5,29.70,ENE,71,5.0,5.0,37,0.00,,---,0.00,VWS V13.00,2013-09-13 20:25:00,
2013-09-13 13:30:00,87.1,61.9,29.69,ENE,68,0.0,2.0,43,0.00,,---,0.00,VWS V13.00,2013-09-13 20:30:00,
2013-09-13 13:35:00,87.5,59.5,29.69,ENE,69,0.0,2.0,39,0.00,,---,0.00,VWS V13.00,2013-09-13 20:35:00,
2013-09-13 13:40:00,88.2,60.1,29.69,ENE,69,0.0,2.0,39,0.00,,---,0.00,VWS V13.00,2013-09-13 20:40:00,
2013-09-13 13:45:00,88.6,59.0,29.69,SSE,164,0.0,4.0,37,0.00,,---,0.00,VWS V13.00,2013-09-13 20:45:00,
2013-09-13 13:50:00,89.0,60.1,29.68,SSE,164,0.0,4.0,38,0.00,,---,0.00,VWS V13.00,2013-09-13 20:50:00,
2013-09-13 13:54:00,89.3,57.3,29.68,South,169,0.0,4.0,34,0.00,,---,0.00,VWS V13.00,2013-09-13 20:54:00,
2013-09-13 13:59:00,89.7,59.2,29.68,South,169,0.0,1.0,36,0.00,,---,0.00,VWS V13.00,2013-09-13 20:59:00,
2013-09-13 14:04:00,90.1,59.6,29.68,South,169,0.0,1.0,36,0.00,,---,0.00,VWS V13.00,2013-09-13 21:04:00,
2013-09-13 14:09:00,90.5,62.2,29.67,South,169,0.0,1.0,39,0.00,,---,0.00,VWS V13.00,2013-09-13 21:09:00,
2013-09-13 14:14:00,90.9,58.7,29.67,South,169,0.0,1.0,34,0.00,,---,0.00,VWS V13.00,2013-09-13 21:14:00,
2013-09-13 14:19:00,90.9,57.0,29.67,South,169,0.0,1.0,32,0.00,,---,0.00,VWS V13.00,2013-09-13 21:19:00,
2013-09-13 14:24:00,91.2,58.9,29.67,West,281,0.0,4.0,34,0.00,,---,0.00,VWS V13.00,2013-09-13 21:24:00,
2013-09-13 14:29:00,91.4,56.5,29.66,WNW,295,0.0,2.0,31,0.00,,---,0.00,VWS V13.00,2013-09-13 21:29:00,
2013-09-13 14:34:00,91.7,61.8,29.66,WNW,292,0.0,2.0,37,0.00,,---,0.00,VWS V13.00,2013-09-13 21:34:00,
2013-09-13 14:39:00,91.9,57.0,29.66,WNW,292,0.0,2.0,31,0.00,,---,0.00,VWS V13.00,2013-09-13 21:39:00,
2013-09-13 14:44:00,92.3,57.3,29.66,NW,325,0.0,3.0,31,0.00,,---,0.00,VWS V13.00,2013-09-13 21:44:00,
2013-09-13 14:49:00,92.7,59.4,29.66,SSE,163,3.0,4.0,33,0.00,,---,0.00,VWS V13.00,2013-09-13 21:49:00,
2013-09-13 14:54:00,93.1,60.6,29.65,South,175,2.0,4.0,34,0.00,,---,0.00,VWS V13.00,2013-09-13 21:54:00,
2013-09-13 14:59:00,93.5,60.1,29.65,South,175,0.0,0.0,33,0.00,,---,0.00,VWS V13.00,2013-09-13 21:59:00,
2013-09-13 15:04:00,94.0,59.7,29.65,South,171,0.0,1.0,32,0.00,,---,0.00,VWS V13.00,2013-09-13 22:04:00,
2013-09-13 15:09:00,94.4,60.0,29.65,South,171,0.0,1.0,32,0.00,,---,0.00,VWS V13.00,2013-09-13 22:09:00,
2013-09-13 15:14:00,94.7,62.0,29.65,SSE,159,0.0,2.0,34,0.00,,---,0.00,VWS V13.00,2013-09-13 22:14:00,
2013-09-13 15:19:00,94.6,60.2,29.64,SSE,157,0.0,5.0,32,0.00,,---,0.00,VWS V13.00,2013-09-13 22:19:00,
2013-09-13 15:24:00,94.4,60.0,29.64,SSE,157,0.0,5.0,32,0.00,,---,0.00,VWS V13.00,2013-09-13 22:24:00,
2013-09-13 15:29:00,93.5,60.1,29.65,East,88,1.0,5.0,33,0.00,,---,0.00,VWS V13.00,2013-09-13 22:29:00,
2013-09-13 15:34:00,92.5,59.2,29.65,WNW,290,4.0,6.0,33,0.00,,---,0.00,VWS V13.00,2013-09-13 22:34:00,
2013-09-13 15:39:00,92.2,56.3,29.65,NNW,348,2.0,6.0,30,0.00,,---,0.00,VWS V13.00,2013-09-13 22:39:00,
2013-09-13 15:44:00,92.2,59.8,29.65,NNW,336,0.0,6.0,34,0.00,,---,0.00,VWS V13.00,2013-09-13 22:44:00,
2013-09-13 15:49:00,92.4,56.5,29.65,SW,233,2.0,6.0,30,0.00,,---,0.00,VWS V13.00,2013-09-13 22:49:00,
2013-09-13 15:54:00,92.7,53.9,29.64,WSW,254,0.0,6.0,27,0.00,,---,0.00,VWS V13.00,2013-09-13 22:54:00,
2013-09-13 15:59:00,93.2,56.2,29.64,SW,236,2.0,3.0,29,0.00,,---,0.00,VWS V13.00,2013-09-13 22:59:00,
2013-09-13 16:04:00,93.8,57.7,29.64,SW,236,0.0,3.0,30,0.00,,---,0.00,VWS V13.00,2013-09-13 23:04:00,
2013-09-13 16:09:00,94.2,54.1,29.64,West,265,0.0,4.0,26,0.00,,---,0.00,VWS V13.00,2013-09-13 23:09:00,
2013-09-13 16:14:00,94.7,55.6,29.63,South,188,4.0,5.0,27,0.00,,---,0.00,VWS V13.00,2013-09-13 23:14:00,
2013-09-13 16:19:00,95.0,53.7,29.64,NW,307,2.0,5.0,25,0.00,,---,0.00,VWS V13.00,2013-09-13 23:19:00,
2013-09-13 16:24:00,95.2,53.9,29.63,NW,307,2.0,5.0,25,0.00,,---,0.00,VWS V13.00,2013-09-13 23:24:00,
2013-09-13 16:29:00,95.1,52.7,29.63,NW,317,3.0,3.0,24,0.00,,---,0.00,VWS V13.00,2013-09-13 23:29:00,
2013-09-13 16:34:00,94.9,52.5,29.63,NW,321,1.0,5.0,24,0.00,,---,0.00,VWS V13.00,2013-09-13 23:34:00,
2013-09-13 16:39:00,94.7,53.5,29.63,NW,321,3.0,5.0,25,0.00,,---,0.00,VWS V13.00,2013-09-13 23:39:00,
2013-09-13 16:44:00,94.4,54.3,29.63,NW,323,0.0,5.0,26,0.00,,---,0.00,VWS V13.00,2013-09-13 23:44:00,
2013-09-13 16:49:00,94.2,55.1,29.63,NNW,329,1.0,5.0,27,0.00,,---,0.00,VWS V13.00,2013-09-13 23:49:00,
2013-09-13 16:54:00,93.6,51.4,29.63,NNW,338,2.0,5.0,24,0.00,,---,0.00,VWS V13.00,2013-09-13 23:54:00,
2013-09-13 16:59:00,93.2,52.2,29.63,NNW,339,0.0,0.0,25,0.00,,---,0.00,VWS V13.00,2013-09-13 23:59:00,
2013-09-13 17:04:00,93.0,52.0,29.63,NNW,339,0.0,1.0,25,0.00,,---,0.00,VWS V13.00,2013-09-14 00:04:00,
2013-09-13 17:09:00,92.9,56.9,29.63,NNW,339,0.0,1.0,30,0.00,,---,0.00,VWS V13.00,2013-09-14 00:09:00,
2013-09-13 17:14:00,93.0,54.1,29.63,NNW,338,0.0,1.0,27,0.00,,---,0.00,VWS V13.00,2013-09-14 00:14:00,
2013-09-13 17:19:00,92.9,54.0,29.63,NNW,339,0.0,1.0,27,0.00,,---,0.00,VWS V13.00,2013-09-14 00:19:00,
2013-09-13 17:24:00,92.9,55.0,29.63,NNW,340,0.0,1.0,28,0.00,,---,0.00,VWS V13.00,2013-09-14 00:24:00,
2013-09-13 17:29:00,92.9,55.0,29.63,NNW,339,0.0,0.0,28,0.00,,---,0.00,VWS V13.00,2013-09-14 00:29:00,
2013-09-13 17:34:00,92.9,54.0,29.63,NNW,338,0.0,0.0,27,0.00,,---,0.00,VWS V13.00,2013-09-14 00:34:00,
2013-09-13 17:39:00,92.9,54.0,29.62,NNW,338,0.0,1.0,27,0.00,,---,0.00,VWS V13.00,2013-09-14 00:39:00,
2013-09-13 17:44:00,93.0,56.1,29.62,NNW,338,0.0,1.0,29,0.00,,---,0.00,VWS V13.00,2013-09-14 00:44:00,
2013-09-13 17:49:00,92.8,55.9,29.62,NNW,339,0.0,1.0,29,0.00,,---,0.00,VWS V13.00,2013-09-14 00:49:00,
2013-09-13 17:54:00,92.3,53.5,29.63,NNW,339,0.0,1.0,27,0.00,,---,0.00,VWS V13.00,2013-09-14 00:54:00,
2013-09-13 17:59:00,91.8,55.0,29.63,NNW,338,0.0,0.0,29,0.00,,---,0.00,VWS V13.00,2013-09-14 00:59:00,
2013-09-13 18:04:00,91.4,54.7,29.63,NNW,340,0.0,0.0,29,0.00,,---,0.00,VWS V13.00,2013-09-14 01:04:00,
2013-09-13 18:09:00,90.8,55.1,29.63,NNW,340,0.0,1.0,30,0.00,,---,0.00,VWS V13.00,2013-09-14 01:09:00,
2013-09-13 18:14:00,90.0,54.4,29.63,NNW,340,0.0,1.0,30,0.00,,---,0.00,VWS V13.00,2013-09-14 01:14:00,
2013-09-13 18:19:00,89.1,55.4,29.63,NNW,340,0.0,1.0,32,0.00,,---,0.00,VWS V13.00,2013-09-14 01:19:00,
2013-09-13 18:24:00,88.7,55.1,29.63,NNW,340,0.0,1.0,32,0.00,,---,0.00,VWS V13.00,2013-09-14 01:24:00,
2013-09-13 18:29:00,88.4,55.7,29.63,NNW,340,0.0,0.0,33,0.00,,---,0.00,VWS V13.00,2013-09-14 01:29:00,
2013-09-13 18:34:00,88.1,54.6,29.63,NNW,340,0.0,0.0,32,0.00,,---,0.00,VWS V13.00,2013-09-14 01:34:00,
2013-09-13 18:39:00,87.8,56.0,29.63,NNW,339,0.0,0.0,34,0.00,,---,0.00,VWS V13.00,2013-09-14 01:39:00,
2013-09-13 18:44:00,87.4,54.8,29.63,NNW,340,0.0,0.0,33,0.00,,---,0.00,VWS V13.00,2013-09-14 01:44:00,
2013-09-13 18:49:00,87.1,55.4,29.63,NNW,340,0.0,0.0,34,0.00,,---,0.00,VWS V13.00,2013-09-14 01:49:00,
2013-09-13 18:54:00,86.8,55.1,29.63,NNW,340,0.0,0.0,34,0.00,,---,0.00,VWS V13.00,2013-09-14 01:54:00,
2013-09-13 18:59:00,86.6,54.9,29.63,NNW,340,0.0,0.0,34,0.00,,---,0.00,VWS V13.00,2013-09-14 01:59:00,
2013-09-13 19:04:00,86.3,57.0,29.63,NNW,340,1.0,1.0,37,0.00,,---,0.00,VWS V13.00,2013-09-14 02:04:00,
2013-09-13 19:09:00,85.8,56.5,29.63,NNW,340,0.0,1.0,37,0.00,,---,0.00,VWS V13.00,2013-09-14 02:09:00,
2013-09-13 19:14:00,85.2,56.8,29.63,NNW,340,0.0,1.0,38,0.00,,---,0.00,VWS V13.00,2013-09-14 02:14:00,
2013-09-13 19:19:00,84.4,56.8,29.64,NNW,340,0.0,2.0,39,0.00,,---,0.00,VWS V13.00,2013-09-14 02:19:00,
2013-09-13 19:24:00,83.4,56.6,29.64,NNW,340,2.0,3.0,40,0.00,,---,0.00,VWS V13.00,2013-09-14 02:24:00,
2013-09-13 19:29:00,82.3,56.3,29.64,NNW,340,1.0,3.0,41,0.00,,---,0.00,VWS V13.00,2013-09-14 02:29:00,
2013-09-13 19:34:00,81.4,56.8,29.65,NNW,340,2.0,3.0,43,0.00,,---,0.00,VWS V13.00,2013-09-14 02:34:00,
2013-09-13 19:39:00,80.5,56.6,29.65,NNW,340,2.0,3.0,44,0.00,,---,0.00,VWS V13.00,2013-09-14 02:39:00,
2013-09-13 19:44:00,79.8,56.6,29.65,NNW,340,2.0,3.0,45,0.00,,---,0.00,VWS V13.00,2013-09-14 02:44:00,
2013-09-13 19:49:00,78.9,56.4,29.65,NNW,340,2.0,3.0,46,0.00,,---,0.00,VWS V13.00,2013-09-14 02:49:00,
2013-09-13 19:54:00,78.1,56.2,29.66,NNW,340,0.0,3.0,47,0.00,,---,0.00,VWS V13.00,2013-09-14 02:54:00,
2013-09-13 19:59:00,77.3,56.1,29.65,NNW,340,2.0,2.0,48,0.00,,---,0.00,VWS V13.00,2013-09-14 02:59:00,
2013-09-13 20:04:00,76.6,56.0,29.65,NNW,340,2.0,3.0,49,0.00,,---,0.00,VWS V13.00,2013-09-14 03:04:00,
2013-09-13 20:09:00,76.0,56.0,29.66,NNW,340,0.0,3.0,50,0.00,,---,0.00,VWS V13.00,2013-09-14 03:09:00,
2013-09-13 20:14:00,75.5,56.1,29.66,NNW,340,2.0,3.0,51,0.00,,---,0.00,VWS V13.00,2013-09-14 03:14:00,
2013-09-13 20:19:00,74.9,56.1,29.66,NNW,340,2.0,3.0,52,0.00,,---,0.00,VWS V13.00,2013-09-14 03:19:00,
2013-09-13 20:24:00,74.2,55.5,29.66,NNW,339,2.0,3.0,52,0.00,,---,0.00,VWS V13.00,2013-09-14 03:24:00,
2013-09-13 20:29:00,73.6,54.9,29.67,NNW,340,2.0,2.0,52,0.00,,---,0.00,VWS V13.00,2013-09-14 03:29:00,
2013-09-13 20:34:00,73.0,54.9,29.67,NNW,340,1.0,3.0,53,0.00,,---,0.00,VWS V13.00,2013-09-14 03:34:00,
2013-09-13 20:39:00,72.6,54.5,29.67,NNW,340,1.0,3.0,53,0.00,,---,0.00,VWS V13.00,2013-09-14 03:39:00,
2013-09-13 20:44:00,72.0,54.5,29.67,NNW,340,1.0,3.0,54,0.00,,---,0.00,VWS V13.00,2013-09-14 03:44:00,
2013-09-13 20:49:00,71.5,54.5,29.68,NNW,340,1.0,3.0,55,0.00,,---,0.00,VWS V13.00,2013-09-14 03:49:00,
2013-09-13 20:54:00,71.2,54.2,29.68,NNW,340,1.0,3.0,55,0.00,,---,0.00,VWS V13.00,2013-09-14 03:54:00,
2013-09-13 20:59:00,70.9,54.4,29.67,NNW,340,2.0,2.0,56,0.00,,---,0.00,VWS V13.00,2013-09-14 03:59:00,
2013-09-13 21:01:00,70.8,54.3,29.67,NNW,340,0.0,2.0,56,0.00,,---,0.00,VWS V13.00,2013-09-14 04:01:00,
2013-09-13 21:02:00,70.7,54.2,29.67,NNW,340,1.0,2.0,56,0.00,,---,0.00,VWS V13.00,2013-09-14 04:02:00,
2013-09-13 21:07:00,70.3,53.9,29.67,NNW,340,2.0,3.0,56,0.00,,---,0.00,VWS V13.00,2013-09-14 04:07:00,
2013-09-13 21:12:00,69.9,54.0,29.67,NNW,340,1.0,3.0,57,0.00,,---,0.00,VWS V13.00,2013-09-14 04:12:00,
2013-09-13 21:17:00,69.6,54.2,29.67,NNW,340,2.0,3.0,58,0.00,,---,0.00,VWS V13.00,2013-09-14 04:17:00,
2013-09-13 21:22:00,69.3,54.4,29.68,NNW,340,0.0,3.0,59,0.00,,---,0.00,VWS V13.00,2013-09-14 04:22:00,
2013-09-13 21:27:00,69.0,54.1,29.67,NNW,340,0.0,3.0,59,0.00,,---,0.00,VWS V13.00,2013-09-14 04:27:00,
2013-09-13 21:32:00,68.7,54.3,29.67,NNW,340,0.0,1.0,60,0.00,,---,0.00,VWS V13.00,2013-09-14 04:32:00,
2013-09-13 21:37:00,68.5,54.1,29.67,NNW,340,0.0,1.0,60,0.00,,---,0.00,VWS V13.00,2013-09-14 04:37:00,
2013-09-13 21:42:00,68.2,54.2,29.68,NNW,340,0.0,1.0,61,0.00,,---,0.00,VWS V13.00,2013-09-14 04:42:00,
2013-09-13 21:47:00,68.0,54.1,29.68,NNW,340,0.0,1.0,61,0.00,,---,0.00,VWS V13.00,2013-09-14 04:47:00,
2013-09-13 21:52:00,67.8,53.9,29.68,NNW,340,0.0,1.0,61,0.00,,---,0.00,VWS V13.00,2013-09-14 04:52:00,
2013-09-13 21:57:00,67.6,53.7,29.68,NNW,340,0.0,2.0,61,0.00,,---,0.00,VWS V13.00,2013-09-14 04:57:00,
2013-09-13 22:02:00,67.4,53.9,29.67,NNW,338,1.0,1.0,62,0.00,,---,0.00,VWS V13.00,2013-09-14 05:02:00,
2013-09-13 22:07:00,67.2,53.8,29.67,NNW,340,0.0,2.0,62,0.00,,---,0.00,VWS V13.00,2013-09-14 05:07:00,
2013-09-13 22:12:00,67.0,53.6,29.68,NNW,340,0.0,2.0,62,0.00,,---,0.00,VWS V13.00,2013-09-14 05:12:00,
2013-09-13 22:17:00,66.8,53.8,29.68,NNW,340,0.0,2.0,63,0.00,,---,0.00,VWS V13.00,2013-09-14 05:17:00,
2013-09-13 22:22:00,66.5,54.0,29.68,NNW,340,0.0,2.0,64,0.00,,---,0.00,VWS V13.00,2013-09-14 05:22:00,
2013-09-13 22:27:00,66.3,53.8,29.68,NNW,340,0.0,2.0,64,0.00,,---,0.00,VWS V13.00,2013-09-14 05:27:00,
2013-09-13 22:32:00,66.1,53.6,29.68,NNW,340,0.0,1.0,64,0.00,,---,0.00,VWS V13.00,2013-09-14 05:32:00,
2013-09-13 22:37:00,65.8,53.3,29.68,NNW,340,0.0,1.0,64,0.00,,---,0.00,VWS V13.00,2013-09-14 05:37:00,
2013-09-13 22:42:00,65.6,53.1,29.68,NNW,340,2.0,3.0,64,0.00,,---,0.00,VWS V13.00,2013-09-14 05:42:00,
2013-09-13 22:47:00,65.3,52.8,29.68,NNW,340,0.0,3.0,64,0.00,,---,0.00,VWS V13.00,2013-09-14 05:47:00,
2013-09-13 22:52:00,65.0,53.0,29.69,NNW,340,0.0,3.0,65,0.00,,---,0.00,VWS V13.00,2013-09-14 05:52:00,
2013-09-13 22:57:00,64.9,53.3,29.69,NNW,340,0.0,3.0,66,0.00,,---,0.00,VWS V13.00,2013-09-14 05:57:00,
2013-09-13 23:02:00,64.7,53.1,29.68,NNW,340,1.0,1.0,66,0.00,,---,0.00,VWS V13.00,2013-09-14 06:02:00,
2013-09-13 23:07:00,64.6,53.4,29.67,NNW,340,0.0,1.0,67,0.00,,---,0.00,VWS V13.00,2013-09-14 06:07:00,
2013-09-13 23:12:00,64.4,53.2,29.68,NNW,340,0.0,1.0,67,0.00,,---,0.00,VWS V13.00,2013-09-14 06:12:00,
2013-09-13 23:17:00,64.1,52.9,29.68,NNW,340,2.0,3.0,67,0.00,,---,0.00,VWS V13.00,2013-09-14 06:17:00,
2013-09-13 23:22:00,63.9,53.1,29.68,NNW,340,3.0,3.0,68,0.00,,---,0.00,VWS V13.00,2013-09-14 06:22:00,
2013-09-13 23:27:00,63.7,53.3,29.68,NNW,340,2.0,3.0,69,0.00,,---,0.00,VWS V13.00,2013-09-14 06:27:00,
2013-09-13 23:32:00,63.5,53.2,29.68,NNW,340,0.0,1.0,69,0.00,,---,0.00,VWS V13.00,2013-09-14 06:32:00,
2013-09-13 23:37:00,63.3,53.0,29.68,NNW,340,0.0,1.0,69,0.00,,---,0.00,VWS V13.00,2013-09-14 06:37:00,
2013-09-13 23:42:00,63.1,52.8,29.68,NNW,340,0.0,1.0,69,0.00,,---,0.00,VWS V13.00,2013-09-14 06:42:00,
2013-09-13 23:47:00,62.9,53.0,29.68,NNW,340,0.0,1.0,70,0.00,,---,0.00,VWS V13.00,2013-09-14 06:47:00,
2013-09-13 23:52:00,62.7,52.8,29.68,NNW,340,0.0,1.0,70,0.00,,---,0.00,VWS V13.00,2013-09-14 06:52:00,
2013-09-13 23:57:00,62.5,52.6,29.68,NNW,340,0.0,1.0,70,0.00,,---,0.00,VWS V13.00,2013-09-14 06:57:00,